Tracking 29892 objects as of 21-Nov-2024
HD Live streaming from Space Station
objects crossing your sky now

STARLINK-5882

Track STARLINK-5882 now!
10-day predictions
STARLINK-5882 is classified as:


NORAD ID: 55936
Int'l Code: 2023-037Y
Perigee: 577.0 km
Apogee: 581.3 km
Inclination: 70.0 °
Period: 96.1 minutes
Semi major axis: 6950 km
RCS: Unknown
Launch date: March 17, 2023
Source: United States (US)
Launch site: AIR FORCE WESTERN TEST RANGE (AFWTR)
Your satellite tracking list
Your tracking list is empty




NASA's NSSDC Master Catalog

Two Line Element Set (TLE):
1 55936U 23037Y   24325.13574696  .00000320  00000-0  34587-4 0  9996
2 55936  69.9999  20.8115 0003109 270.1508  89.9295 14.98337488 93395
Source of the keplerian elements: AFSPC